Location: Unspecified
(54.1780°N, 0.0000°E)
Time: 03:53:24
(UTC+00:00)

Altair - Pass Details

Date: 27 June 2019
Orbit: 1501 x 1683 km, 47.2° (Epoch: 21 July)

Event Time Altitude Azimuth Distance (km) Brightness Sun altitude
Rises 20:27:59 0° 251° (WSW) 4,709 10.5 0.2°
Reaches altitude 10° 20:31:03 10° 247° (WSW) 3,749 9.9 -0.1°
Maximum altitude 20:40:17 57° 173° (S) 1,838 7.7 -1.1°
Drops below altitude 10° 20:49:54 10° 98° (E) 3,891 9.2 -2.1°
Sets 20:53:08 0° 95° (E) 4,898 9.7 -2.4°
